Regional Weather Roundup
Issued by NWS

Home | Current Version | Previous Version | Graphics & Text | Print | Product List | Glossary On
Versions: 1 2 3 4 5 6 7 8 9 10 11 12 13 14 15 16 17 18 19 20 21 22 23 24 25 26 27 28 29 30 31 32 33 34 35 36 37 38 39 40 41 42 43 44 45 46 47 48 49 50
000
ASUS43 KDMX 240406
RWRIA

WEATHER ROUNDUP FOR IOWA
NATIONAL WEATHER SERVICE DES MOINES IA
1100 PM CDT MON APR 23 2018

NOTE: "FAIR" INDICATES FEW OR NO CLOUDS BELOW 12,000 FEET WITH NO
SIGNIFICANT WEATHER AND/OR OBSTRUCTIONS TO VISIBILITY.

* - THESE STATIONS ARE NOT NWS STATIONS...THUS NOT UNDER NWS
QUALITY CONTROL.  THEY ALSO DO NOT REPORT WEATHER SUCH
AS PRECIPITATION OR FOG.

IAZ001>003-012>014-020>022-031>034-043>046-240500-
   NORTHWEST IOWA

CITY           SKY/WX    TMP DP  RH WIND       PRES   REMARKS
CARROLL *      PTCLDY    52  39  62 N6        30.11R
CHEROKEE *     CLEAR     50  43  76 NE3       30.14S
DENISON *      CLEAR     52  37  58 NE8       30.13R
LE MARS *      CLOUDY    54  41  62 MISG      30.13R
ORANGE CITY *  PTCLDY    54  43  66 NE7       30.14S
SHELDON *      CLEAR     46  43  87 NE10      30.13S
SIOUX CITY     CLOUDY    56  41  57 E12       30.11R
SPENCER        CLEAR     47  39  74 NE5       30.15R
STORM LAKE *   CLEAR     50  43  76 NE9       30.13S
$$

IAZ055>058-069>071-079>083-090>094-240500-
   SOUTHWEST IOWA

CITY           SKY/WX    TMP DP  RH WIND       PRES   REMARKS
ATLANTIC *     CLEAR     46  32  57 N8        30.09S
AUDUBON *      CLEAR     50  37  62 CALM      30.12R
CLARINDA *     MOCLDY    48  37  66 CALM      30.10R
COUNCIL BLFS * CLEAR     59  32  36 NE8       30.09R
CRESTON *      CLEAR     54  28  37 NE10      30.09S
HARLAN  *      CLEAR     54  36  50 N8        30.13S
LAMONI         CLEAR     57  29  34 NE5       30.07S
RED OAK *      CLEAR     50  32  50 CALM      30.08S
SHENANDOAH *   CLEAR     52  32  46 N3        30.08S
$$

IAZ047>049-059>061-072>074-084-240500-
   CENTRAL IOWA

CITY           SKY/WX    TMP DP  RH WIND       PRES   REMARKS
AMES           CLEAR     56  37  49 NE8       30.09F
ANKENY *       CLEAR     54  32  43 NE6       30.10S
BOONE *        CLEAR     52  39  62 NE8       30.09S
CHARITON *     CLEAR     55  28  35 N6        30.07S
DES MOINES     CLEAR     60  30  32 NE6       30.09S
GRINNELL*      CLEAR     52  28  40 NE6       30.10S
KNOXVILLE *    CLEAR     59  25  27 NE7       30.07S
MARSHALLTOWN   CLEAR     50  34  54 NE7       30.09S
NEWTON *       PTCLDY    55  30  38 NE6       30.09S
PELLA *        CLEAR     57  26  29 NE3       30.09S
PERRY *        FAIR      52  33  47 N7        30.10S
$$

IAZ004>006-015-016-023>025-035-036-240500-
   NORTH CENTRAL IOWA

CITY           SKY/WX    TMP DP  RH WIND       PRES   REMARKS
ALGONA *       CLEAR     52  43  71 N6        30.14S
CLARION *      CLEAR     48  41  76 N8        30.12S
ESTHERVILLE    CLEAR     44  42  93 NW5       30.14S
FORT DODGE *   CLEAR     54  44  69 N6        30.13R
MASON CITY     CLEAR     47  41  80 N7        30.14R
FOREST CITY *  FAIR      45  43  93 CALM      30.13S
WEBSTER CITY * CLEAR     48  41  76 N8        30.10S
IOWA FALLS *   FAIR      55  40  57 N7        30.12S
$$

IAZ007>011-017>019-026>030-037>042-050>054-066-240500-
   NORTHEAST IOWA

CITY           SKY/WX    TMP DP  RH WIND       PRES   REMARKS
CEDAR RAPIDS   FAIR      56  28  34 NE10      30.08S
CHARLES CITY * FAIR      54  37  54 NE5       30.12S
CLINTON *      FAIR      50  35  56 E8        30.09S
DECORAH *      FAIR      55  28  35 CALM      30.11S
DUBUQUE        FAIR      51  32  48 NE8       30.11S
MONTICELLO *   FAIR      54  32  43 NE7       30.09F
OELWEIN *      FAIR      52  32  46 E6        30.11F
WATERLOO       FAIR      46  33  60 CALM      30.10S
$$

IAZ064-065-067-068-078-240500-
   EAST CENTRAL IOWA

CITY           SKY/WX    TMP DP  RH WIND       PRES   REMARKS
DAVENPORT      FAIR      55  31  39 E9        30.10R
IOWA CITY      FAIR      57  27  31 NE8       30.09S
MT. PLEASANT * CLOUDY    52  32  46 N8        30.06S
MUSCATINE *    FAIR      55  34  44 NE7       30.07S
QUAD CITIES    FAIR      60  35  39 E12       30.07R
$$

IAZ062-063-075>077-085>089-095>099-240500-
   SOUTHEAST IOWA

CITY           SKY/WX    TMP DP  RH WIND       PRES   REMARKS
BURLINGTON     CLOUDY    60  38  43 E7        30.05R
FAIRFIELD *    PTCLDY    48  27  43 N9        30.06S
FORT MADISON * CLOUDY    61  37  41 E8        30.05S
KEOKUK *       CLOUDY    61  36  39 NE7       30.04R
OSKALOOSA *    FAIR      51  27  39 NE9       30.07F
CENTERVILLE *    N/A     54  27  35 CALM      30.08S
OTTUMWA        CLOUDY    53  28  38 N7        30.06F
WASHINGTON *   PTCLDY    52  28  40 NE8       30.08S
$$

ABBREVIATIONS USED IN REMARKS
   TC - TEMPERATURES IN CELSIUS
  WCI - WIND CHILL INDEX
   HX - HEAT INDEX
  VSB - VISIBILITY
$$




USA.gov is the U.S. government's official web portal to all federal, state and local government web resources and services.